Location: LDNL
(36.4545°S, 141.6685°E)
Time: 07:44:08
(UTC+11:00)

Transit 4A - Visible Passes

Search period start: 26 January 2022 00:00
Search period end: 05 February 2022 00:00
Orbit: 863 x 981 km, 66.8° (Epoch: 25 January)

Date Brightness Start Highest point End Pass type
(mag) Time Alt. Az. Time Alt. Az. Time Alt. Az.
26 Jan 8.7 05:33:17 10° SSW 05:38:59 52° ESE 05:44:39 10° NE visible
26 Jan 11.1 22:28:07 10° WSW 22:30:31 12° SW 22:32:53 10° SSW visible
27 Jan 10.9 03:58:22 10° SSE 04:01:01 13° SE 04:03:40 10° ESE visible
27 Jan 7.9 05:42:26 10° SSW 05:48:18 80° ESE 05:54:08 10° NNE visible
28 Jan 10.4 04:06:38 10° S 04:10:42 19° SE 04:14:44 10° E visible
28 Jan 7.7 05:51:45 10° SSW 05:57:33 68° WNW 06:03:19 10° NNE visible
29 Jan 9.8 04:15:20 10° S 04:20:16 27° SE 04:25:10 10° ENE visible
29 Jan 8.1 06:01:15 10° SW 06:06:44 43° WNW 06:12:11 10° N visible
29 Jan 10.6 21:06:44 10° W 21:11:25 22° SW 21:16:03 10° S visible
30 Jan 9.1 04:24:15 10° SSW 04:29:45 40° ESE 04:35:11 10° NE visible
30 Jan 8.6 06:11:00 10° SW 06:15:50 27° WNW 06:20:38 10° NNW visible
30 Jan 10.8 21:17:32 10° W 21:21:03 16° SW 21:24:34 10° S visible
31 Jan 10.8 02:51:02 10° SE 02:51:32 10° SE 02:52:03 10° SE visible
31 Jan 8.2 04:33:20 10° SSW 04:39:08 61° ESE 04:44:52 10° NE visible
31 Jan 9.1 06:21:12 10° WSW 06:24:52 17° WNW 06:28:31 10° NW visible
31 Jan 11.2 21:29:31 10° SW 21:30:48 11° SW 21:32:04 10° SSW visible
01 Feb 10.5 02:58:02 10° S 03:01:18 15° SE 03:04:31 10° E visible
01 Feb 7.7 04:42:33 10° SSW 04:48:25 89° WNW 04:54:15 10° NNE visible
02 Feb 10.0 03:06:30 10° S 03:10:55 22° SE 03:15:18 10° E visible
02 Feb 7.7 04:51:55 10° SW 04:57:38 58° WNW 05:03:19 10° N visible
03 Feb 9.4 03:15:18 10° S 03:20:27 31° SE 03:24:47 14° ENE visible
03 Feb 8.2 05:01:29 10° SW 05:06:47 37° WNW 05:08:04 33° NW visible
04 Feb 8.6 03:24:16 10° SSW 03:29:54 46° ESE 03:31:21 38° E visible
04 Feb 9.0 05:11:21 10° SW 05:14:43 22° W 05:14:43 22° W visible
